• In Austria
  • List of Countries
  • For 7 days
  • Water Temperature
  • Satellite Maps
  • Weather Map
  • News
  • Weather Widgets
  • user-avatar
    Login

    Hourly Weather Sidi Bu-l-Abbas

    Today, 22 May, Tuesday

    Time Temperature Precipitation Wind Pressure Humidity
    00:00 +16°C° 0 mm 0 mps 718 mmHg 71%
    01:00 +15°C° 0 mm 0 mps 718 mmHg 71%
    02:00 +15°C° 0 mm 0 mps 718 mmHg 72%
    03:00 +14°C° 0 mm 0 mps 718 mmHg 73%
    04:00 +15°C° 0 mm 0 mps 718 mmHg 69%
    05:00 +16°C° 0 mm 0 mps 718 mmHg 66%
    06:00 +16°C° 0 mm 0 mps 719 mmHg 63%
    07:00 +18°C° 0 mm 0 mps 719 mmHg 55%
    08:00 +19°C° 0 mm 0 mps 719 mmHg 47%
    09:00 +20°C° 0 mm 0 mps 720 mmHg 38%
    10:00 +24°C° 0 mm 1 mps 720 mmHg 36%
    11:00 +25°C° 0 mm 1 mps 720 mmHg 33%
    12:00 +26°C° 0 mm 2 mps 720 mmHg 30%
    13:00 +26°C° 0 mm 2 mps 720 mmHg 29%
    14:00 +27°C° 0 mm 3 mps 719 mmHg 29%
    15:00 +28°C° 0 mm 3 mps 719 mmHg 28%
    16:00 +27°C° 0 mm 4 mps 719 mmHg 30%
    17:00 +26°C° 0 mm 4 mps 719 mmHg 33%
    18:00 +26°C° 0 mm 5 mps 719 mmHg 35%
    19:00 +25°C° 0 mm 4 mps 719 mmHg 40%
    20:00 +22°C° 0 mm 3 mps 719 mmHg 44%
    21:00 +21°C° 0 mm 2 mps 719 mmHg 49%
    22:00 +21°C° 0 mm 2 mps 719 mmHg 50%
    23:00 +20°C° 0 mm 2 mps 719 mmHg 52%

    Tomorrow, 23 May, Wednesday

    Time Temperature Precipitation Wind Pressure Humidity
    00:00 +21°C° 0 mm 1 mps 719 mmHg 53%
    01:00 +21°C° 0 mm 1 mps 719 mmHg 53%
    02:00 +19°C° 0 mm 2 mps 719 mmHg 53%
    03:00 +19°C° 0 mm 2 mps 719 mmHg 54%
    04:00 +20°C° 0 mm 2 mps 719 mmHg 52%
    05:00 +20°C° 0 mm 2 mps 719 mmHg 51%
    06:00 +21°C° 0 mm 2 mps 719 mmHg 50%
    07:00 +24°C° 0 mm 3 mps 719 mmHg 43%
    08:00 +27°C° 0 mm 4 mps 720 mmHg 35%
    09:00 +30°C° 0 mm 6 mps 720 mmHg 27%
    10:00 +32°C° 0 mm 6 mps 720 mmHg 24%
    11:00 +34°C° 0 mm 6 mps 720 mmHg 21%
    12:00 +36°C° 0 mm 7 mps 720 mmHg 18%
    13:00 +36°C° 0 mm 7 mps 719 mmHg 18%
    14:00 +36°C° 0 mm 7 mps 719 mmHg 17%
    15:00 +36°C° 0 mm 7 mps 718 mmHg 17%
    16:00 +35°C° 0 mm 6 mps 718 mmHg 19%
    17:00 +35°C° 0 mm 5 mps 717 mmHg 21%
    18:00 +34°C° 0 mm 5 mps 717 mmHg 23%
    19:00 +32°C° 0 mm 4 mps 717 mmHg 27%
    20:00 +29°C° 0 mm 3 mps 717 mmHg 30%
    21:00 +27°C° 0 mm 2 mps 717 mmHg 34%
    22:00 +26°C° 0 mm 2 mps 717 mmHg 38%
    23:00 +25°C° 0 mm 3 mps 717 mmHg 42%

    Day after tomorrow, 24 May, Thursday

    Time Temperature Precipitation Wind Pressure Humidity
    00:00 +24°C° 0 mm 3 mps 716 mmHg 46%
    01:00 +22°C° 0 mm 3 mps 716 mmHg 49%
    02:00 +22°C° 0 mm 4 mps 716 mmHg 53%
    03:00 +21°C° 0 mm 4 mps 716 mmHg 57%
    04:00 +21°C° 0 mm 4 mps 716 mmHg 58%
    05:00 +21°C° 0 mm 4 mps 716 mmHg 59%
    06:00 +21°C° 0 mm 4 mps 717 mmHg 59%
    07:00 +23°C° 0 mm 5 mps 717 mmHg 53%
    08:00 +26°C° 0 mm 6 mps 717 mmHg 47%
    09:00 +28°C° 0 mm 6 mps 718 mmHg 40%
    10:00 +28°C° 0 mm 6 mps 718 mmHg 40%
    11:00 +29°C° 0 mm 6 mps 718 mmHg 39%
    12:00 +29°C° 0 mm 6 mps 718 mmHg 38%
    13:00 +29°C° 0 mm 6 mps 717 mmHg 40%
    14:00 +28°C° 0 mm 6 mps 717 mmHg 42%
    15:00 +28°C° 0 mm 6 mps 716 mmHg 44%
    16:00 +27°C° 0 mm 5 mps 716 mmHg 49%
    17:00 +25°C° 0 mm 4 mps 716 mmHg 54%
    18:00 +23°C° 0 mm 4 mps 716 mmHg 60%
    19:00 +22°C° 0 mm 3 mps 716 mmHg 65%
    20:00 +21°C° 0 mm 2 mps 717 mmHg 69%
    21:00 +19°C° 0 mm 2 mps 717 mmHg 74%
    22:00 +19°C° 0 mm 2 mps 717 mmHg 75%
    23:00 +19°C° 0 mm 2 mps 717 mmHg 77%

    25 May, Friday

    Time Temperature Precipitation Wind Pressure Humidity
    00:00 +20°C° 0 mm 1 mps 717 mmHg 78%
    01:00 +19°C° 0 mm 1 mps 717 mmHg 79%
    02:00 +19°C° 0 mm 1 mps 717 mmHg 80%
    03:00 +18°C° 0 mm 1 mps 717 mmHg 81%
    04:00 +18°C° 0 mm 1 mps 717 mmHg 79%
    05:00 +19°C° 0 mm 1 mps 717 mmHg 77%
    06:00 +18°C° 0 mm 2 mps 717 mmHg 75%
    07:00 +19°C° 0 mm 2 mps 717 mmHg 67%
    08:00 +21°C° 0 mm 2 mps 718 mmHg 59%
    09:00 +23°C° 0 mm 2 mps 718 mmHg 51%
    10:00 +25°C° 0 mm 3 mps 718 mmHg 47%
    11:00 +26°C° 0 mm 4 mps 718 mmHg 42%
    12:00 +28°C° 0 mm 5 mps 718 mmHg 37%
    13:00 +27°C° 0 mm 5 mps 717 mmHg 39%
    14:00 +27°C° 0 mm 5 mps 717 mmHg 40%
    15:00 +27°C° 0 mm 6 mps 716 mmHg 42%
    16:00 +26°C° 0 mm 5 mps 716 mmHg 46%
    17:00 +25°C° 0 mm 4 mps 716 mmHg 50%
    18:00 +24°C° 0 mm 3 mps 716 mmHg 54%
    19:00 +22°C° 0 mm 3 mps 717 mmHg 57%
    20:00 +21°C° 0 mm 2 mps 717 mmHg 61%
    21:00 +20°C° 0 mm 2 mps 717 mmHg 64%
    22:00 +20°C° 0 mm 2 mps 717 mmHg 65%
    23:00 +20°C° 0 mm 1 mps 717 mmHg 67%

    26 May, Saturday

    Time Temperature Precipitation Wind Pressure Humidity
    00:00 +20°C° 0 mm 1 mps 717 mmHg 68%
    01:00 +19°C° 0 mm 1 mps 717 mmHg 70%
    02:00 +19°C° 0 mm 1 mps 716 mmHg 71%
    03:00 +18°C° 0 mm 1 mps 716 mmHg 73%
    04:00 +18°C° 0 mm 1 mps 716 mmHg 72%
    05:00 +19°C° 0 mm 1 mps 717 mmHg 71%
    06:00 +19°C° 0 mm 1 mps 717 mmHg 70%
    07:00 +20°C° 0 mm 1 mps 717 mmHg 64%
    08:00 +21°C° 0 mm 2 mps 717 mmHg 58%
    09:00 +23°C° 0 mm 2 mps 718 mmHg 52%
    10:00 +25°C° 0 mm 3 mps 717 mmHg 47%
    11:00 +27°C° 0 mm 3 mps 717 mmHg 41%
    12:00 +29°C° 0 mm 4 mps 717 mmHg 36%
    13:00 +28°C° 0 mm 5 mps 717 mmHg 37%
    14:00 +28°C° 0 mm 5 mps 716 mmHg 39%
    15:00 +28°C° 0 mm 5 mps 716 mmHg 40%
    16:00 +27°C° 0 mm 5 mps 716 mmHg 44%
    17:00 +26°C° 0 mm 5 mps 716 mmHg 47%
    18:00 +25°C° 0 mm 4 mps 716 mmHg 51%
    19:00 +24°C° 0 mm 3 mps 716 mmHg 56%
    20:00 +23°C° 0 mm 2 mps 717 mmHg 61%
    21:00 +21°C° 0 mm 1 mps 717 mmHg 66%
    22:00 +21°C° 0 mm 1 mps 717 mmHg 66%
    23:00 +21°C° 0 mm 1 mps 717 mmHg 66%

    27 May, Sunday

    Time Temperature Precipitation Wind Pressure Humidity
    00:00 +20°C° 0 mm 2 mps 717 mmHg 67%
    01:00 +20°C° 0 mm 2 mps 717 mmHg 67%
    02:00 +20°C° 0 mm 2 mps 717 mmHg 67%
    03:00 +20°C° 0 mm 2 mps 717 mmHg 67%
    04:00 +19°C° 0 mm 2 mps 717 mmHg 69%
    05:00 +19°C° 0 mm 2 mps 717 mmHg 70%
    06:00 +19°C° 0 mm 2 mps 717 mmHg 71%
    07:00 +21°C° 0.1 mm 3 mps 718 mmHg 65%
    08:00 +22°C° 0.1 mm 3 mps 718 mmHg 58%
    09:00 +25°C° 0.1 mm 4 mps 718 mmHg 52%
    10:00 +25°C° 0 mm 5 mps 718 mmHg 50%
    11:00 +26°C° 0 mm 5 mps 718 mmHg 48%
    12:00 +27°C° 0 mm 6 mps 718 mmHg 46%
    13:00 +26°C° 0 mm 6 mps 717 mmHg 47%
    14:00 +26°C° 0 mm 6 mps 717 mmHg 48%
    15:00 +26°C° 0 mm 6 mps 717 mmHg 49%
    16:00 +25°C° 0 mm 5 mps 717 mmHg 51%
    17:00 +23°C° 0 mm 4 mps 717 mmHg 53%
    18:00 +22°C° 0 mm 4 mps 718 mmHg 55%
    19:00 +22°C° 0 mm 3 mps 718 mmHg 57%
    20:00 +21°C° 0 mm 2 mps 718 mmHg 60%
    21:00 +21°C° 0 mm 1 mps 719 mmHg 63%
    22:00 +21°C° 0 mm 1 mps 719 mmHg 64%
    23:00 +20°C° 0 mm 1 mps 719 mmHg 66%
    Show more